This is the latest recevied weather packets stored in our database for station/object IK2ILW-4. If no packets are shown the sender has not sent any weather packets the latest 10 day(s).
| Time | Temp. | Humidity | Pressure | Rain* | Wind** | Luminosity | Snow |
|---|---|---|---|---|---|---|---|
| 1787665372 | 17.78° C | 80% | 1016.2 hPa | 39.37 mm | - | 225 W/m² | - |
| 1787665069 | 18.33° C | 80% | 1016.2 hPa | 39.37 mm | - | 406 W/m² | - |
| 1787664772 | 18.89° C | 80% | 1016.2 hPa | 39.37 mm | - | 680 W/m² | - |
| 1787664473 | 18.33° C | 82% | 1016.2 hPa | 39.37 mm | - | 698 W/m² | - |
| 1787664171 | 18.33° C | 81% | 1016.2 hPa | 39.37 mm | - | 675 W/m² | - |
| 1787663873 | 17.78° C | 81% | 1016.2 hPa | 39.37 mm | - | 700 W/m² | - |
| 1787663556 | 17.78° C | 82% | 1016.1 hPa | 39.37 mm | - | 733 W/m² | - |
| 1787663255 | 18.33° C | 81% | 1016.1 hPa | 39.37 mm | - | 737 W/m² | - |
| 1787662966 | 18.33° C | 81% | 1016.1 hPa | 39.37 mm | - | 744 W/m² | - |
| 1787662654 | 17.78° C | 82% | 1016.2 hPa | 39.37 mm | - | 715 W/m² | - |
| 1787662369 | 17.78° C | 81% | 1016.2 hPa | 39.37 mm | - | 758 W/m² | - |
| 1787662055 | 17.78° C | 82% | 1016.2 hPa | 39.37 mm | - | 877 W/m² | - |
| 1787661769 | 17.78° C | 82% | 1016.2 hPa | 39.37 mm | - | 877 W/m² | - |
| 1787661464 | 17.78° C | 79% | 1016.2 hPa | 39.37 mm | - | 775 W/m² | - |
| 1787661174 | 17.78° C | 82% | 1016.2 hPa | 39.37 mm | - | 860 W/m² | - |
| 1787660864 | 17.78° C | 82% | 1016.2 hPa | 39.37 mm | - | 842 W/m² | - |
| 1787660561 | 17.22° C | 83% | 1016.2 hPa | 39.37 mm | - | 817 W/m² | - |
| 1787660258 | 17.78° C | 82% | 1016.2 hPa | 39.37 mm | - | 788 W/m² | - |
| 1787659968 | 17.22° C | 85% | 1016.1 hPa | 39.37 mm | - | 930 W/m² | - |
| 1787659655 | 16.67° C | 86% | 1016.1 hPa | 39.37 mm | - | 951 W/m² | - |
| 1787659352 | 16.67° C | 85% | 1016.1 hPa | 39.37 mm | - | 1111 W/m² | - |
| 1787659073 | 16.67° C | 84% | 1016.1 hPa | 39.37 mm | - | 814 W/m² | - |
| 1787658769 | 16.67° C | 88% | 1016.1 hPa | 39.37 mm | - | 951 W/m² | - |
| 1787658474 | 16.67° C | 87% | 1016.1 hPa | 39.37 mm | - | 923 W/m² | - |
| 1787658170 | 16.67° C | 87% | 1015.9 hPa | 39.37 mm | - | 842 W/m² | - |
* Rain since midnight (hover to see other rain measurements)
** Current wind speed in m/s (hover to see current wind gust speed)